Location: Unspecified
(33.2407°S, 0.0000°E)
Time: 01:38:04
(UTC+00:00)

Envisat - Pass Details

Date: 23 May 2019
Orbit: 764 x 766 km, 98.1° (Epoch: 16 June)

Event Time Altitude Azimuth Distance (km) Brightness Sun altitude
Exits shadow 18:23:19 21° 71° (ENE) 1,683 4.3 -16.5°
Drops below altitude 10° 18:26:20 10° 35° (NE) 2,305 5.3 -17.1°
Sets 18:29:07 0° 20° (NNE) 3,222 6.2 -17.7°
